Showing default

TSAT-1A, 59442

Orbit data source: Space-Track

TSAT-1A, 59442 is a payload satellite owned by TASL (IN) in LEO that was launched on Sun, 07 Apr 2024 UTC via an FALCON 9 launch vehicle from the Air Force Eastern Test Range (AFETR). Payload-class satellites include a variety of spacecraft equipped with specific instruments for various scientific and technological missions. These include communications satellites like Starlink; space stations such as the ISS; scientific satellites like the Hubble; Earth observation satellites from companies like Planet Labs, Umbra, and HawkEye 360; GPS; miniature CubeSats for education and research; and military/defense satellites.

Loading next visibility...
Identifier
59442, 2024-066A
Orbit
LEO
Last TLE update
9 hours ago
Origin
Manufacturer
URUGUS S.A.
Mission
Operational spacecraft
Bus & Motor
NEWSAT V, Unknown motor
Mass
~42 kg wet, ~38 kg dry
Launch date (UTC)
2024-04-07 (1 year ago)
Launch vehicle
FALCON 9
Launch site
Air Force Eastern Test Range (AFETR)
Object type
Payload
Rocket body
Debris
Shape & HBR
Unknown
Radar Cross Section
Medium (>0.1 m² and <1 m²)

Expand to show TLE details & history

TLE from 9 hours ago
0 TSAT-1A
1 59442U 24066A   25184.20334830  .00006049  00000-0  24364-3 0  9996
2 59442  45.6237 213.7876 0012571 327.6526  32.3594 15.25773202 68301
Epoch: 2025-07-03T04:52Z
TLE epoch observation values (Epoch: 2025-07-03T04:52:49.293Z)
Latitude
-0.00001°
Longitude
-140.89127°
Altitude
481.245 km
Speed
7.631 km/s
True Right ascension
14h 15m 09s
True Declination
0° 00' 00"
Sunlit
Object was in daylight at epoch
Visualization orbit readout
Latitude
-26.38039°
Longitude
-171.82637°
Altitude
486.846 km
Speed
7.627 km/s
Apparent Right ascension
12h 57m 25s
Apparent Declination
-33° 24' 10"
Sunlit
Object is in daylight
Visualization observer readout
Local Sidereal Time
01:55:28
Azimuth
65.269° ENE
Elevation
-76.686°
Doppler factor
1
Orbital elements
Apogee altitude
498.602 km
Perigee altitude
481.334 km
Semi-major axis
6,868.105 km
Eccentricity
0.00126
Inclination
45.6237°
RAAN
213.7876°
Arg. of periapsis
327.6526°
True anomaly
Unknown
Mean anomaly
32.3594°
Eccentric anomaly
Unknown
Mean motion
3.81318 °/min
Orbital period
94.41 mins
BSTAR
0.00024364
Loading maneuver chart data...
Loading SW <> Apogee altitude chart data...
Loading historical data...
Loading historical data...
Loading historical data...
Loading historical data...
Loading historical data...
Loading historical data...
Loading historical data...

TSAT-1A Visibility forecast

Observer location: undefined°, undefined°

Span
Click to sort rows by Start time (UTC) header in descending order
Start Az.
Max El. time (UTC)
Max El. Az.
Max El.
End time (UTC)
End Az.
5 mins2025-07-04 04:38:31.719Z201.697° SSW2025-07-04 04:40:31.719Z161.412° S27.541°2025-07-04 04:43:31.719Z86.954° E
5 mins2025-07-04 06:17:31.719Z268.518° W2025-07-04 06:19:31.719Z323.239° NNW39.409°2025-07-04 06:22:31.719Z56.845° ENE
5 mins2025-07-04 07:57:31.719Z315.326° NNW2025-07-04 07:59:31.719Z16.075° NNE28.057°2025-07-04 08:02:31.719Z65.973° ENE
5 mins2025-07-04 09:36:31.719Z311.072° NW2025-07-04 09:38:31.719Z29.123° NE39.03°2025-07-04 09:41:31.719Z95.025° ESE
5 mins2025-07-04 11:15:31.719Z262.457° W2025-07-04 11:17:31.719Z201.103° SSW29.521°2025-07-04 11:20:31.719Z148.999° SSE
|